Torna al catalogo

FENGYUN 1C DEB

AttivoPO
NORAD 36647·DEBRIS·🇨🇳 China

Lanciato May 10, 1999 da Taiyuan Satellite Launch Center

Loading…

Prossimi Passaggi (prossime 24 ore)

TLE

AggiornatoSource: Space-Track

Epoca: Sep 11, 2026, 09:58 UTC

1 36647U 99025DXR 26254.41541391  .00002318  00000-0  14956-2 0  9999
2 36647  96.1252 307.4463 0235530 223.0697 135.1829 13.90802813342000

Traccia FENGYUN 1C DEB in tempo reale con AllMySat

Download on the App Store